This is the latest recevied weather packets stored in our database for station/object DB2AG-13. If no packets are shown the sender has not sent any weather packets the latest 10 day(s).
| Time | Temp. | Humidity | Pressure | Rain* | Wind** | Luminosity | Snow |
|---|---|---|---|---|---|---|---|
| 1787584154 | 22.78° C | 37% | 1022.9 hPa | - | - | - | - |
| 1787583617 | 22.78° C | 37% | 1022.9 hPa | - | - | - | - |
| 1787583074 | 22.78° C | 37% | 1023 hPa | - | - | - | - |
| 1787582537 | 22.78° C | 36% | 1023.1 hPa | - | - | - | - |
| 1787581997 | 23.33° C | 35% | 1023.2 hPa | - | - | - | - |
| 1787581456 | 23.89° C | 35% | 1023.2 hPa | - | - | - | - |
| 1787580918 | 23.89° C | 35% | 1023.4 hPa | - | - | - | - |
| 1787580371 | 24.44° C | 35% | 1023.5 hPa | - | - | - | - |
| 1787579826 | 24.44° C | 34% | 1023.6 hPa | - | - | - | - |
| 1787579283 | 24.44° C | 34% | 1023.7 hPa | - | - | - | - |
| 1787578747 | 24.44° C | 35% | 1023.8 hPa | - | - | - | - |
| 1787578213 | 24.44° C | 36% | 1023.8 hPa | - | - | - | - |
| 1787577679 | 23.89° C | 37% | 1023.9 hPa | - | - | - | - |
| 1787576603 | 23.33° C | 36% | 1024.1 hPa | - | - | - | - |
| 1787576057 | 24.44° C | 35% | 1024.2 hPa | - | - | - | - |
| 1787575516 | 24.44° C | 36% | 1024.4 hPa | - | - | - | - |
| 1787574978 | 25° C | 36% | 1024.4 hPa | - | - | - | - |
| 1787573908 | 24.44° C | 36% | 1024.5 hPa | - | - | - | - |
| 1787573370 | 24.44° C | 37% | 1024.7 hPa | - | - | - | - |
| 1787572833 | 23.89° C | 37% | 1024.7 hPa | - | - | - | - |
| 1787572296 | 23.89° C | 37% | 1024.7 hPa | - | - | - | - |
| 1787571765 | 23.33° C | 38% | 1024.9 hPa | - | - | - | - |
| 1787570692 | 22.78° C | 42% | 1025.1 hPa | - | - | - | - |
| 1787570149 | 21.67° C | 41% | 1025.1 hPa | - | - | - | - |
| 1787569609 | 22.22° C | 41% | 1025.1 hPa | - | - | - | - |
* Rain since midnight (hover to see other rain measurements)
** Current wind speed in m/s (hover to see current wind gust speed)